STARLINK-2758 (48638 NORAD) Tracking and Keplerian Element Data

This shows tracking and keplerian element data for the satellite.

Feedback or suggestion? Click here.




ElementValue
Catalog48638
NameSTARLINK-2758
Epoch Orbit1153
Epoch Day215.16667824
Epoch Year2021
RAAN96.2782
Inclination53.053
Eccentricity0.0001504
Argument of Perigee67.5322
Mean Anonmoly5.4928
Mean Motion15.06375229
Decay Rate0.00031195
L11 48638U 21044A 21215.16667824 .00031195 00000-0 21053-2 0 9993
L22 48638 53.0530 96.2782 0001504 67.5322 5.4928 15.06375229 11534

Live tracking and technical data element details for STARLINK-2758 (NORAD 48638). STARLINK-2758 can be tracked NOW for your location showing map with azimuth and elevation plus other details from your city location.

Track the satellite on the map from your city or location and see movement details for azimuth, elevation, latitude, longitude, range, height, and movement on the map or in text.







IsCatalogInMostPopularTable: catalog: 48638, numindb: 13
Update: records affected: 1



GetName: 48638 STARLINK-2758

Hit Count: updated at: Wed, 04 Aug 2021 00:57:57 GMT